Regional Weather Roundup
Issued by NWS Upton, NY

Current Version | Previous Version | Graphics & Text | Print | Product List | Glossary Off
Versions: 1 2 3 4 5 6 7 8 9 10 11 12 13 14 15 16 17 18 19 20 21 22 23 24 25 26 27

000
ASUS41 KOKX 180105
RWROKX

REGIONAL WEATHER ROUNDUP
NATIONAL WEATHER SERVICE NEW YORK NY
900 PM EDT THU APR 17 2014

NOTE: "FAIR" INDICATES FEW OR NO CLOUDS BELOW 12,000 FEET WITH NO
SIGNIFICANT WEATHER AND/OR OBSTRUCTIONS TO VISIBILITY.

NYZ071-072-176-178-NJZ106-104-180200-
NEW YORK CITY METRO AREA


CITY           SKY/WX    TMP DP  RH WIND       PRES   REMARKS
CENTRAL PARK   CLEAR     41  30  65 S5        30.67S
LAGUARDIA APRT PTCLDY    43  29  57 E8        30.65S
KENNEDY INTL   MOCLDY    40  31  70 E10       30.66S WCI  33
NEWARK/LIBERTY PTCLDY    41  31  67 VRB7      30.65S
TETERBORO      CLEAR     44  31  60 S3        30.64R
$$

NYZ177-179-078>081-180200-
LONG ISLAND NEW YORK

CITY           SKY/WX    TMP DP  RH WIND       PRES   REMARKS
FARMINGDALE    CLEAR     38  29  70 E7        30.66R WCI  33
ISLIP          PTCLDY    38  28  67 E3        30.64S
SHIRLEY        CLEAR     37  28  70 VRB3      30.66F
WESTHAMPTON    PTCLDY    38  27  64 NE7       30.67S WCI  33
MONTAUK POINT    N/A     40  30  67 NE12G21   30.68S WCI  33
$$

NYZ052-065-067-180200-
HUDSON VALLEY

CITY           SKY/WX    TMP DP  RH WIND       PRES   REMARKS
WHITE PLAINS   CLEAR     39  27  62 E3        30.63R
NEWBURGH       CLEAR     43  23  45 VRB6      30.62S
MONTGOMERY     PTCLDY    41  21  44 S3        30.61S
POUGHKEEPSIE   CLEAR     45  26  47 SE6       30.62R
ALBANY         PTCLDY    46  18  32 SE8       30.60S
$$

NJZ001-105-106-008-010-013-015-019>022-104-180200-
NEW JERSEY

CITY           SKY/WX    TMP DP  RH WIND       PRES   REMARKS
NEWARK/LIBERTY PTCLDY    41  31  67 VRB7      30.65S
TETERBORO      CLEAR     44  31  60 S3        30.64R
CALDWELL       CLEAR     40  30  67 CALM      30.65R
MORRISTOWN     CLEAR     39  30  70 S6        30.66R WCI  35
SOMERVILLE     CLEAR     38  30  73 SE6       30.63S WCI  33
LINDEN         FAIR      42  32  68 SE7       30.67F
SUSSEX         CLEAR     41  28  60 CALM      30.61S
ANDOVER          N/A     39  29  67 CALM      30.61S
TRENTON        CLEAR     39  28  64 SE9       30.63S WCI  33
MILLVILLE      CLEAR     38  29  70 E8        30.62F WCI  32
ATLANTIC CITY  PTCLDY    37  30  75 E9        30.63S WCI  30
WRIGHTSTOWN    CLEAR     36  29  75 E5        30.62S WCI  32
TOMS RIVER     PTCLDY    37  28  70 CALM      30.64F
BELMAR         MOCLDY    39  28  65 E8        30.64S WCI  34
$$

PAZ047>061-062-071-180200-
EASTERN PENNSYLVANIA

CITY           SKY/WX    TMP DP  RH WIND       PRES   REMARKS
PHILADELPHIA   PTCLDY    42  27  55 E12       30.63F
ALLENTOWN      CLEAR     42  27  55 E8        30.61R
SCRANTON       CLEAR     43  25  49 S7G18     30.54R
$$

CTZ002-004>006-009-010-012-RIZ004-006-007-MAZ004-011-015-180200-
SOUTHERN NEW ENGLAND
 IN CT

CITY           SKY/WX    TMP DP  RH WIND       PRES   REMARKS
BRADLEY INTL   PTCLDY    40  21  46 E10       30.67R WCI  33
HARTFORD       CLEAR     42  23  46 E8        30.67R
DANBURY        PTCLDY    37  27  67 SE5       30.65S WCI  33
WTRBRY/OXFORD  NOT AVBL
BRIDGEPORT     CLEAR     41  31  67 E12       30.66S
MERIDEN        CLEAR     38  29  70 CALM      30.67R
NEW HAVEN      CLEAR     41  30  65 E12       30.66F
CHESTER        FAIR      39  27  60 E10G16    30.65F WCI  32
GROTON         CLEAR     38  26  62 NE12      30.68S WCI  30
WILLIMANTIC    CLEAR     39  25  57 NE8       30.69R WCI  33

 IN RI

CITY           SKY/WX    TMP DP  RH WIND       PRES   REMARKS
PROVIDENCE     PTCLDY    35  24  64 NE13      30.71S WCI  26
BLOCK ISLAND   CLEAR     37  27  65 NE15G21   30.67S WCI  28
WESTERLY       CLEAR     37  26  64 NE7       30.69S WCI  32

 IN MA

CITY           SKY/WX    TMP DP  RH WIND       PRES   REMARKS
BOSTON         PTCLDY    35  24  64 NE12      30.74F WCI  27
WORCESTER      FAIR      32  23  69 E8        30.67S WCI  25
WESTFIELD      PTCLDY    41  21  44 E5        30.67R
PROVINCETOWN   CLEAR     36  27  69 MISG      30.72F
NANTUCKET      PTCLDY    36  25  64 NE12      30.68R WCI  28
$$

ANZ330-335-338-340-345-350-353-355-180200-
COASTAL MARINE OBSERVATIONS


STATION/POSITION TIME  SKY/WX   TEMP    WIND        PRES    VSBY  WAVE
                                AIR SEA DIR/SP/G                  HT/PER
                 (UTC)          (F)     (DEG/KT/KT) (MB)    (MI)  (FT/S)
NY HARB ENTRANCE 0100            40 43   50/ 17/ 21 1037.3
4S FIRE IS       0000               44                N/A           7/ 8
23SW MTP         0100            39 42   60/ 21/ 27 1037.3          7/ 6
HUDSON CANYON    0000            40 45   50/ 21/ 25 1035.9          9/ 8
EXECUTION ROCKS  0100            42 42  150/  6/  8   N/A
WESTERN LI SOUND 0100            42      80/ 10/ 14   N/A           2/ 4
CENTRAL LI SOUND 0000            40 42  110/ 17/ 21   N/A           3/ 5
EASTERN LI SOUND NOT AVBL
ROBBINS REEF     0100            40     130/ 11/ 15   N/A
$$


>>>>>>>>>>>>>>>>>>>>>>>>>>>> KEY <<<<<<<<<<<<<<<<<<<<<<<<<<<
>                                                          <
>     SKY/WX - SKY CONDITION/PRESENT WEATHER               <
>     TMP    - TEMPERATURE IN FAHRENHEIT                   <
>     DP     - DEWPOINT IN FAHRENHEIT                      <
>     RH     - RELATIVE HUMIDITY IN PERCENT                <
>     WIND   - DIRECTION AND SPEED IN MPH                  <
>     PRES   - MEAN SEA LEVEL PRESSURE IN INCHES OF HG     <
>     WCI    - WIND CHILL INDEX                            <
>     VSB    - VISIBILITY IN MILES                         <
>     HX     - HEAT INDEX                                  <
>     TC     - TEMPERATURE IN CELSIUS                      <
>     VRB    - VARIABLE WIND DIRECTION                     <
>                                                          <
>>>>>>>>>>>>>>>>>>>>>>>>>>>> KEY <<<<<<<<<<<<<<<<<<<<<<<<<<<





USA.gov is the U.S. government's official web portal to all federal, state and local government web resources and services.